Overview Statistics Trail Chart Weather Telemetry Raw packets
 

This is the latest recevied weather packets stored in our database for station/object S56VIL-11. If no packets are shown the sender has not sent any weather packets the latest 10 day(s).

<< 22 23 24 25 26 27 28 >>
Time Temp. Humidity Pressure Rain* Wind** Luminosity Snow
1788094001 26.11° C 61% 1030.5 hPa - - - -
1788093101 26.11° C 62% 1030.6 hPa - - - -
1788092201 26.11° C 62% 1030.6 hPa - - - -
1788091312 26.11° C 62% 1030.7 hPa - - - -
1788090401 26.67° C 63% 1030.6 hPa - - - -
1788089501 26.67° C 64% 1030.6 hPa - - - -
1788088604 26.11° C 65% 1030.7 hPa - - - -
1788087701 26.67° C 65% 1030.8 hPa - - - -
1788086800 28.89° C 65% 1030.9 hPa - - - -
1788085900 31.11° C 64% 1031 hPa - - - -
1788085000 31.11° C 64% 1031.1 hPa - - - -
1788084100 31.11° C 64% 1031.2 hPa - - - -
1788083200 30° C 64% 1031.2 hPa - - - -
1788082300 30° C 64% 1031.2 hPa - - - -
1788081400 30° C 64% 1031.3 hPa - - - -
1788080500 28.89° C 64% 1031.4 hPa - - - -
1788079604 28.33° C 64% 1031.4 hPa - - - -
1788078700 26.67° C 66% 1031.3 hPa - - - -
1788077800 23.33° C 67% 1031.4 hPa - - - -
1788076900 20.56° C 68% 1031.3 hPa - - - -
1788075999 20.56° C 68% 1031.2 hPa - - - -
1788075100 20° C 68% 1031.2 hPa - - - -
1788074200 19.44° C 69% 1031.2 hPa - - - -
1788073300 18.89° C 69% 1031.2 hPa - - - -
1788072400 18.89° C 69% 1031 hPa - - - -

* Rain since midnight (hover to see other rain measurements)
** Current wind speed in m/s (hover to see current wind gust speed)